Location: Dębówka
(51.9602°N, 21.1600°E)
Time: 22:21:45
(UTC+01:00)

ISS - Visible Passes

Search period start: 19 January 2018 00:00
Search period end: 29 January 2018 00:00
Orbit: 402 x 407 km, 51.6° (Epoch: 20 January)

Date Brightness Start Highest point End Pass type
(mag) Time Alt. Az. Time Alt. Az. Time Alt. Az.
26 Jan -1.0 18:55:47 10° SSW 18:56:12 13° SSW 18:56:12 13° SSW visible
27 Jan -2.0 18:04:00 10° SSW 18:06:11 19° SSE 18:06:11 19° SSE visible
28 Jan -1.5 17:12:43 10° SSE 17:14:17 13° SE 17:15:50 10° ESE visible
28 Jan -2.0 18:47:01 10° SW 18:48:46 27° SW 18:48:46 27° SW visible
